User: anonymous   Login
Location: Balaclava NSW 2575, Australia
(34.4510°S, 150.4953°E)
Time: 23:58:47
(UTC+10:00)
Language:

HuskySat-1 - Orbit

View from above orbital plane
View from above orbital plane
View from above satellite
View from above satellite

Ground track
Ground track

The orbit data is extracted from the following two-line orbital elements,

1 45117U 19071G   21215.15566631  .00004373  00000-0  13007-3 0  9991
2 45117  51.6400 169.1678 0010527 101.2449 258.9718 15.36839315 84365
Epoch (UTC): 03 August 2021 03:44:09
Eccentricity: 0.0010527
inclination: 51.6400°
perigee height: 448 km
apogee height: 462 km
right ascension of ascending node: 169.1678°
argument of perigee: 101.2449°
revolutions per day: 15.36839315
mean anomaly at epoch: 258.9718°
orbit number at epoch: 8436

The dashed part of the orbit path shows where the satellite is in the earth's shadow,  

DLR